Date String (YYYY-MM-DD hh:mm:ss) UTC,Instrument flags,Ambient pressure (hPa),Sample flow (lpm),Bypass flow (lpm),Sample temperature (°C),Ambient temperature (°C),ASC tube jacket temperature (°C),LED temperature (°C),Box temperature (°C),Sample RH (%),Span deviation,Mass concentration (μg/m³),Mass concentration (μg/m³),Mass concentration (μg/m³)
DateTimeUTC,F1_M11,P_M11,Q1_M11,Q2_M11,T1_M11,T2_M11,T3_M11,T4_M11,T5_M11,U1_M11,ZSPAN_M11,X0_M11,X2_M11,X1_M11
2022-12-18 09:00:00,,0820.2,5.02,0.00,21.8,20.5,00.0,30.6,23.5,05.6,0000.0,0008.87,0003.83,0003.13
2022-12-18 09:01:00,,0820.1,5.03,0.00,21.7,20.4,00.0,30.6,23.5,05.6,0000.0,0008.64,0003.84,0003.14
2022-12-18 09:02:00,,0820.1,4.95,0.00,21.7,20.3,00.0,30.6,23.4,05.7,0000.0,0008.86,0003.88,0003.14
2022-12-18 09:03:00,,0820.2,5.03,0.00,21.7,20.2,00.0,30.6,23.4,05.7,0000.0,0009.00,0003.94,0003.14
2022-12-18 09:04:00,,0820.1,5.03,0.00,21.7,20.1,00.0,30.6,23.4,05.7,0000.0,0008.92,0003.89,0003.14
2022-12-18 09:05:00,,0820.1,4.97,0.00,21.7,20.5,00.0,30.5,23.4,05.7,0000.0,0009.00,0003.92,0003.15
2022-12-18 09:06:00,,0820.0,5.00,0.00,21.8,21.5,00.0,30.5,23.7,05.7,0000.0,0009.44,0003.92,0003.15
2022-12-18 09:07:00,,0820.0,4.99,0.00,21.9,22.0,00.0,30.5,23.9,05.7,0000.0,0009.86,0003.91,0003.15
2022-12-18 09:08:00,,0820.2,5.01,0.00,21.9,21.6,00.0,30.6,23.8,05.7,0000.0,0010.61,0003.92,0003.17
2022-12-18 09:09:00,,0820.2,5.02,0.00,21.9,21.1,00.0,30.6,23.7,05.7,0000.0,0010.29,0003.92,0003.17
2022-12-18 09:10:00,,0820.2,4.96,0.00,21.8,20.7,00.0,30.6,23.6,05.8,0000.0,0010.14,0003.90,0003.18
2022-12-18 09:11:00,,0820.2,5.02,0.00,21.8,20.5,00.0,30.6,23.5,05.7,0000.0,0010.27,0003.89,0003.17
2022-12-18 09:12:00,,0820.2,5.02,0.00,21.8,20.3,00.0,30.6,23.5,05.7,0000.0,0010.30,0003.91,0003.17
2022-12-18 09:13:00,,0820.2,4.95,0.00,21.8,20.3,00.0,30.6,23.4,05.8,0000.0,0010.81,0003.92,0003.19
2022-12-18 09:14:00,,0820.2,5.01,0.00,21.7,20.1,00.0,30.6,23.4,05.8,0000.0,0010.90,0003.92,0003.21
2022-12-18 09:15:00,,0820.2,5.03,0.00,21.7,20.0,00.0,30.6,23.4,05.8,0000.0,0010.95,0003.92,0003.23
2022-12-18 09:16:00,,0820.3,4.98,0.00,21.7,20.0,00.0,30.6,23.3,05.8,0000.0,0010.94,0003.91,0003.24
2022-12-18 09:17:00,,0820.2,5.00,0.00,21.7,20.6,00.0,30.6,23.5,05.8,0000.0,0010.36,0003.90,0003.25
2022-12-18 09:18:00,,0820.2,5.03,0.00,21.8,21.7,00.0,30.5,23.7,05.8,0000.0,0009.87,0003.95,0003.25
2022-12-18 09:19:00,,0820.2,4.97,0.00,21.9,21.9,00.0,30.6,23.9,05.8,0000.0,0009.55,0003.96,0003.26
2022-12-18 09:20:00,,0820.2,5.02,0.00,21.9,21.5,00.0,30.6,23.8,05.8,0000.0,0009.52,0004.00,0003.29
2022-12-18 09:21:00,,0820.2,4.97,0.00,21.9,21.1,00.0,30.6,23.7,05.8,0000.0,0010.20,0004.03,0003.30
2022-12-18 09:22:00,,0820.1,5.03,0.00,21.9,20.8,00.0,30.7,23.6,05.8,0000.0,0010.22,0004.04,0003.32
2022-12-18 09:23:00,,0820.0,5.00,0.00,21.9,20.6,00.0,30.7,23.6,05.8,0000.0,0010.19,0004.03,0003.34
2022-12-18 09:24:00,,0819.9,4.95,0.00,21.8,20.5,00.0,30.7,23.5,05.8,0000.0,0009.56,0004.04,0003.35
2022-12-18 09:25:00,,0819.9,5.03,0.00,21.8,20.4,00.0,30.7,23.5,05.6,0000.0,0009.32,0004.01,0003.35
2022-12-18 09:26:00,,0819.9,5.02,0.00,21.8,20.2,00.0,30.7,23.5,05.6,0000.0,0009.83,0004.06,0003.37
2022-12-18 09:27:00,,0820.2,4.98,0.00,21.8,20.1,00.0,30.6,23.4,05.6,0000.0,0010.03,0004.08,0003.38
2022-12-18 09:28:00,,0820.3,4.98,0.00,21.7,20.2,00.0,30.6,23.4,05.6,0000.0,0010.25,0004.12,0003.40
2022-12-18 09:29:00,,0820.5,5.03,0.00,21.8,21.1,00.0,30.6,23.6,05.7,0000.0,0010.04,0004.10,0003.40
2022-12-18 09:30:00,,0820.3,4.97,0.00,21.9,21.9,00.0,30.6,23.9,05.7,0000.0,0009.79,0004.08,0003.39
2022-12-18 09:31:00,,0820.2,5.03,0.00,22.0,21.9,00.0,30.6,23.9,05.6,0000.0,0009.95,0004.08,0003.39
2022-12-18 09:32:00,,0820.2,4.96,0.00,22.0,21.5,00.0,30.7,23.9,05.5,0000.0,0009.45,0004.07,0003.40
2022-12-18 09:33:00,,0820.2,5.04,0.00,22.0,21.2,00.0,30.7,23.8,05.5,0000.0,0009.48,0004.11,0003.42
2022-12-18 09:34:00,,0820.2,5.03,0.00,22.0,20.9,00.0,30.7,23.7,05.5,0000.0,0009.80,0004.17,0003.45
2022-12-18 09:35:00,,0820.0,4.95,0.00,21.9,20.8,00.0,30.7,23.7,05.4,0000.0,0010.11,0004.17,0003.47
2022-12-18 09:36:00,,0819.9,5.03,0.00,21.9,20.6,00.0,30.7,23.7,05.4,0000.0,0010.29,0004.19,0003.49
2022-12-18 09:37:00,,0820.0,5.02,0.00,21.9,20.5,00.0,30.7,23.6,05.3,0000.0,0009.92,0004.16,0003.49
2022-12-18 09:38:00,,0820.0,4.94,0.00,21.9,20.4,00.0,30.7,23.6,05.4,0000.0,0009.60,0004.14,0003.49
2022-12-18 09:39:00,,0820.1,5.03,0.00,21.9,20.3,00.0,30.7,23.6,05.4,0000.0,0009.33,0004.14,0003.50
2022-12-18 09:40:00,,0820.0,5.03,0.00,21.8,20.3,00.0,30.7,23.6,05.4,0000.0,0009.27,0004.18,0003.53
2022-12-18 09:41:00,,0820.0,4.95,0.00,21.8,20.4,00.0,30.7,23.6,05.4,0000.0,0009.42,0004.25,0003.58
2022-12-18 09:42:00,,0819.9,5.04,0.00,21.9,21.3,00.0,30.7,23.8,05.4,0000.0,0009.17,0004.28,0003.59
2022-12-18 09:43:00,,0819.9,4.97,0.00,22.0,22.1,00.0,30.7,24.0,05.4,0000.0,0009.21,0004.27,0003.59
2022-12-18 09:44:00,,0819.9,5.04,0.00,22.1,21.9,00.0,30.7,24.0,05.3,0000.0,0009.01,0004.24,0003.58
2022-12-18 09:45:00,,0819.9,4.96,0.00,22.1,21.6,00.0,30.8,23.9,05.3,0000.0,0008.48,0004.16,0003.58
2022-12-18 09:46:00,,0819.9,5.04,0.00,22.0,21.2,00.0,30.8,23.9,05.3,0000.0,0008.25,0004.15,0003.57
2022-12-18 09:47:00,,0820.0,4.95,0.00,22.0,20.9,00.0,30.8,23.8,05.3,0000.0,0008.49,0004.16,0003.57
2022-12-18 09:48:00,,0820.0,5.04,0.00,22.0,20.5,00.0,30.8,23.6,05.3,0000.0,0008.33,0004.17,0003.58
2022-12-18 09:49:00,,0820.0,5.03,0.00,21.9,20.0,00.0,30.8,23.4,05.4,0000.0,0008.74,0004.18,0003.57
2022-12-18 09:50:00,,0820.0,4.95,0.00,21.8,19.7,00.0,30.8,23.3,05.3,0000.0,0008.89,0004.14,0003.55
2022-12-18 09:51:00,,0819.9,5.01,0.00,21.7,19.6,00.0,30.7,23.2,05.3,0000.0,0009.18,0004.12,0003.53
2022-12-18 09:52:00,,0820.0,5.03,0.00,21.7,20.3,00.0,30.7,23.4,05.3,0000.0,0009.21,0004.02,0003.51
2022-12-18 09:53:00,,0820.0,4.96,0.00,21.8,21.5,00.0,30.6,23.7,05.5,0000.0,0009.72,0004.00,0003.50
2022-12-18 09:54:00,,0819.9,5.04,0.00,21.9,22.0,00.0,30.7,23.9,05.5,0000.0,0009.69,0003.97,0003.47
2022-12-18 09:55:00,,0820.0,4.97,0.00,22.0,21.6,00.0,30.7,23.8,05.4,0000.0,0009.77,0003.97,0003.44
2022-12-18 09:56:00,,0819.9,5.04,0.00,21.9,21.3,00.0,30.7,23.8,05.3,0000.0,0009.72,0003.93,0003.39
2022-12-18 09:57:00,,0820.0,4.95,0.00,21.9,21.0,00.0,30.8,23.7,05.3,0000.0,0009.90,0003.87,0003.35
2022-12-18 09:58:00,,0820.0,5.04,0.00,21.9,20.8,00.0,30.8,23.7,05.3,0000.0,0009.45,0003.80,0003.30
2022-12-18 09:59:00,,0820.0,4.99,0.00,21.9,20.6,00.0,30.8,23.6,05.3,0000.0,0009.76,0003.74,0003.24
